Overview Statistics Trail Chart Weather Telemetry Raw packets
 

This is the latest recevied weather packets stored in our database for station/object N1ORT. If no packets are shown the sender has not sent any weather packets the latest 10 day(s).

<< 102 103 104 105 106 107 108 >>
Time Temp. Humidity Pressure Rain* Wind** Luminosity Snow
1787849661 26.67° C 78% 1015.5 hPa 0 mm - 635 W/m² -
1787849361 26.11° C 78% 1015.3 hPa 0 mm - 434 W/m² -
1787849055 25.56° C 77% 1015.6 hPa 0 mm - 575 W/m² -
1787848755 26.11° C 76% 1015.7 hPa 0 mm - 647 W/m² -
1787848449 26.11° C 78% 1015.6 hPa 0 mm - 770 W/m² -
1787848149 26.67° C 78% 1015.6 hPa 0 mm - 845 W/m² -
1787847843 26.11° C 78% 1015.9 hPa 0 mm - 815 W/m² -
1787847539 25.56° C 79% 1015.8 hPa 0 mm - 720 W/m² -
1787847234 25.56° C 82% 1016 hPa 0 mm - 764 W/m² -
1787846931 25° C 81% 1016.1 hPa 0 mm - 708 W/m² -
1787846630 25° C 81% 1016.3 hPa 0 mm - 515 W/m² -
1787846325 24.44° C 82% 1016.4 hPa 0 mm - 876 W/m² -
1787846022 23.89° C 83% 1016.3 hPa 0 mm - 491 W/m² -
1787845717 23.89° C 86% 1016.5 hPa 0 mm - 350 W/m² -
1787845416 23.89° C 84% 1016.5 hPa 0 mm - 583 W/m² -
1787845113 23.33° C 85% 1016.5 hPa 0 mm - 285 W/m² -
1787844809 23.89° C 86% 1016.7 hPa 0 mm - 368 W/m² -
1787844507 23.33° C 87% 1016.5 hPa 0 mm - 873 W/m² -
1787844203 22.78° C 88% 1016.5 hPa 0 mm - 296 W/m² -
1787843901 23.33° C 87% 1016.5 hPa 0 mm - 281 W/m² -
1787843597 23.33° C 86% 1016.9 hPa 0 mm - 353 W/m² -
1787843293 22.78° C 87% 1016.8 hPa 0 mm - 769 W/m² -
1787842988 22.22° C 88% 1016.8 hPa 0 mm - 749 W/m² -
1787842688 22.22° C 89% 1017.2 hPa 0 mm - 189 W/m² -
1787842384 22.22° C 88% 1017 hPa 0 mm - 203 W/m² -

* Rain latest hour (hover to see other rain measurements)
** Current wind speed in m/s (hover to see current wind gust speed)